Vorticity
nan nan nan nan nan nan nan nan nan nan nan nan nan nan nan nan nan nan nan nan nan nan nan nan nan nan nan nan nan nan nan nan nan nan nan nan nan nan nan nan nan nan nan
nan 6 4 5 5 6 5 5 5 5 5 6 6 5 5 5 6 5 5 5 5 5 5 5 5 5 5 5 4 4 4 5 7 6 4 2 3 4 5 7 10 6 nan
nan 4 3 4 5 5 5 5 5 6 5 5 5 6 6 5 5 5 5 5 5 5 5 5 5 5 5 5 5 5 5 6 5 8 14 6 -1 2 7 8 6 8 nan
nan 6 5 4 5 4 6 5 6 5 5 5 5 6 6 5 4 5 5 6 7 7 7 5 4 4 4 5 5 5 6 6 7 11 16 9 1 1 5 7 7 7 nan
nan 7 6 6 6 5 5 5 5 6 6 5 6 5 5 5 4 5 6 7 7 7 5 5 4 3 4 4 4 5 6 7 12 18 11 7 4 2 3 6 6 6 nan
nan 7 6 6 5 4 4 6 6 5 6 5 6 5 5 5 5 5 6 7 6 5 4 4 4 4 4 4 4 4 3 6 14 20 6 5 5 4 5 5 5 5 nan
nan 7 8 7 6 8 6 4 5 5 6 5 5 5 5 5 5 5 5 5 4 4 4 3 3 4 4 4 3 3 6 8 13 6 7 3 4 5 5 6 6 6 nan
nan 4 7 5 6 6 5 6 5 5 5 5 5 5 5 5 5 5 4 4 4 3 3 3 4 4 2 3 4 3 4 6 8 10 11 3 5 4 5 6 6 5 nan
nan 6 4 8 6 2 4 5 5 5 5 5 5 5 5 4 4 4 4 4 4 4 4 3 4 3 3 3 3 5 5 6 9 13 7 3 5 5 4 5 6 6 nan
nan 9 6 5 3 3 4 4 4 4 5 6 5 5 5 3 3 3 3 2 3 3 3 4 4 4 6 4 5 4 5 11 11 10 5 6 6 7 7 6 6 7 nan
nan 12 9 5 6 4 5 3 5 5 2 2 5 4 2 6 8 5 4 4 3 2 4 5 4 4 8 14 12 4 10 10 9 9 4 6 6 8 10 10 9 9 nan
nan 6 6 8 7 5 5 4 4 4 4 5 7 6 4 7 9 8 9 5 5 6 7 5 7 10 10 11 13 12 7 6 10 8 6 6 5 7 9 10 10 9 nan
nan 7 7 9 7 6 5 6 7 6 7 9 7 9 10 8 9 7 8 9 9 6 10 12 10 10 9 8 7 9 7 9 9 6 7 6 5 5 5 6 7 7 nan
nan 6 6 5 8 7 7 9 8 7 8 7 5 9 9 8 7 9 6 7 10 10 7 10 8 7 6 7 8 8 8 7 8 7 7 5 5 5 6 5 5 5 nan
nan 5 6 6 7 6 8 10 8 7 7 8 6 6 5 8 8 7 7 8 7 7 7 7 7 6 7 8 7 8 7 7 8 9 8 5 5 6 6 6 5 4 nan
nan 8 6 7 4 7 8 8 7 6 3 6 7 7 9 10 8 7 7 8 7 7 6 8 8 7 8 8 8 8 7 8 9 9 9 7 5 5 6 5 5 5 nan
nan 8 6 7 6 9 7 3 4 6 8 8 7 7 10 9 7 8 9 7 7 6 7 8 8 9 8 6 7 7 7 8 8 7 9 11 11 5 2 2 2 4 nan
nan 7 8 6 9 7 4 5 7 7 8 8 7 7 6 8 8 7 8 7 7 8 9 8 7 7 7 8 7 7 9 6 6 11 9 10 10 8 5 -1 -2 5 nan
nan 7 6 6 9 7 5 5 8 8 8 7 7 9 7 6 7 9 10 7 7 10 8 7 8 7 7 7 7 8 8 6 7 9 8 8 10 10 7 2 -0 4 nan
nan 9 6 8 8 5 4 5 8 7 9 9 8 7 10 6 6 12 11 7 6 8 7 7 8 8 8 6 8 11 8 6 7 7 13 9 10 10 5 7 5 1 nan
nan 7 7 10 5 5 6 8 7 9 6 8 8 7 10 9 9 7 6 7 10 8 7 8 9 8 9 9 9 8 8 8 8 10 9 9 7 8 11 8 8 7 nan
nan 7 7 7 6 3 6 10 10 8 8 7 7 6 5 8 7 7 7 7 8 7 7 8 9 9 8 9 8 9 8 10 6 8 9 6 8 9 8 7 8 9 nan
nan 8 7 6 8 10 8 6 7 9 11 10 9 6 4 5 6 9 9 9 8 8 8 8 8 10 9 7 10 9 9 9 9 6 8 9 8 9 6 8 8 9 nan
nan 9 11 8 6 10 12 11 6 7 7 8 9 9 8 6 6 9 10 9 10 9 8 8 8 10 9 9 10 8 9 9 7 9 8 7 8 8 9 9 9 7 nan
nan 7 8 10 11 7 8 12 12 11 9 7 7 6 8 8 8 8 8 7 8 9 8 9 11 11 9 9 8 9 10 8 8 9 7 8 8 8 10 8 7 7 nan
nan nan nan nan nan nan nan nan nan nan nan nan nan nan nan nan nan nan nan nan nan nan nan nan nan nan nan nan nan nan nan nan nan nan nan nan nan nan nan nan nan nan nan
CAPE
72 307 709 826 803 723 644 601 659 721 816 793 669 508 350 216 338 362 327 253 190 0 0 0 0 0 0 0 0 0 0 0 0 0 229 529 628 672 431 618 800 129 752
120 209 623 775 749 729 730 784 859 884 868 731 552 395 335 271 265 322 273 194 80 0 0 0 0 0 0 0 0 0 0 0 0 16 87 439 542 464 424 791 918 579 886
117 192 335 690 752 809 966 1127 1055 989 779 504 288 305 223 126 93 165 198 86 12 0 0 0 0 0 0 0 0 0 0 0 115 216 137 188 320 445 401 900 709 670 860
112 122 316 711 778 945 1139 1185 1069 907 587 440 297 175 206 59 8 23 104 62 34 0 0 0 0 0 0 0 0 0 0 0 51 107 0 72 185 581 192 189 461 268 552
183 199 491 604 540 763 874 710 961 847 610 454 326 155 25 0 0 0 158 125 24 0 0 0 0 0 0 44 49 39 20 35 55 27 0 0 1 543 363 183 5 90 477
575 381 406 386 317 633 751 1057 930 778 595 452 340 233 0 0 0 9 182 136 0 0 0 0 0 11 125 106 105 56 64 63 32 0 0 1 50 429 407 438 378 220 273
139 160 281 260 424 678 1053 1104 888 778 596 486 371 172 39 0 0 56 183 152 29 21 5 0 32 119 148 124 118 108 84 67 0 0 0 0 29 58 21 150 100 84 128
284 361 198 223 519 739 929 845 720 638 574 493 353 154 110 142 146 198 202 212 209 212 220 165 219 219 233 152 124 79 60 85 0 1 0 6 208 56 16 28 314 258 184
300 278 225 403 635 582 536 476 496 525 513 481 348 213 225 225 213 250 290 280 284 290 312 332 366 357 357 313 198 132 73 36 0 5 8 2 158 59 0 7 162 284 275
103 142 278 290 870 614 446 374 377 422 393 361 234 112 101 125 116 141 238 328 293 228 249 279 276 282 362 317 223 207 150 50 0 0 0 16 143 85 73 0 0 415 441
9 254 566 782 751 713 485 416 432 461 374 328 122 61 4 52 69 99 167 193 161 100 125 200 86 94 177 175 252 341 348 0 0 0 0 75 169 139 177 148 130 171 274
86 511 621 714 789 704 375 353 164 99 38 220 193 35 336 466 132 18 158 194 274 176 163 224 192 189 174 4 39 143 0 0 0 0 0 73 45 73 127 128 124 62 48
667 687 809 908 760 416 316 376 60 234 471 649 636 745 748 714 705 412 598 167 277 216 219 111 130 94 50 30 3 0 0 0 0 0 0 0 0 0 0 0 0 0 0
930 897 859 807 1160 377 310 250 338 515 709 808 870 621 936 926 877 596 403 245 203 79 132 71 36 4 0 0 5 0 0 0 0 0 0 0 0 0 0 0 0 0 0
762 871 780 1004 713 540 428 760 660 496 359 500 483 572 531 517 368 143 77 37 120 2 6 0 0 0 0 0 0 0 0 0 0 0 0 0 0 0 0 0 0 0 0
567 553 591 581 563 618 856 600 272 86 32 58 163 385 415 516 270 36 43 2 0 0 0 0 0 0 0 0 0 0 0 0 0 0 0 1 6 4 0 0 0 0 0
511 574 653 612 558 666 669 346 35 3 14 8 38 49 45 57 6 0 0 0 0 0 0 0 0 0 0 0 0 0 0 0 0 0 0 0 8 24 0 0 0 0 0
569 591 642 508 595 839 408 130 104 47 22 0 0 0 0 0 0 0 0 0 0 0 0 0 0 0 0 0 0 0 0 0 0 0 0 0 10 2 8 8 0 0 0
941 932 714 914 895 539 292 201 248 201 54 0 0 0 0 0 0 0 0 0 0 0 0 0 0 0 0 0 0 0 0 0 0 0 0 0 3 0 0 7 18 9 0
1264 1311 1007 1100 811 480 314 339 474 281 31 0 0 0 0 0 0 0 0 0 0 0 0 0 0 0 0 0 0 0 0 0 0 0 0 1 28 4 0 0 0 0 14
1504 1464 1133 683 521 517 436 427 350 19 0 0 0 0 0 0 0 0 0 0 0 0 0 0 0 0 0 0 0 0 0 0 0 0 0 0 0 0 2 1 0 0 0
1590 1512 992 747 508 706 774 250 4 1 0 0 0 0 0 0 0 0 0 0 0 0 0 0 0 0 0 0 0 0 0 0 0 0 0 0 0 0 0 0 0 0 0
1089 1279 809 819 824 976 222 11 9 0 0 0 0 0 0 0 0 0 0 0 0 0 0 0 0 0 0 0 0 0 0 0 0 0 0 0 0 0 0 0 0 0 0
942 1149 1045 929 593 38 11 0 0 0 0 0 0 0 0 0 0 0 0 0 0 0 0 0 0 0 0 0 0 0 0 0 0 0 0 0 0 0 0 0 0 0 0
1081 850 327 14 0 0 0 0 0 0 0 0 0 0 0 0 0 0 0 0 0 0 0 0 0 1 0 1 0 0 0 0 0 0 0 0 0 0 0 1 0 0 0
166 25 0 0 0 0 0 0 0 0 0 0 0 0 0 0 0 0 0 0 0 0 0 0 0 0 0 0 0 2 0 0 0 0 0 0 0 0 0 0 0 0 0